^^
Station Historical Data
Daily Summary for January 14, 2018 Units:  Metric    English   Both
« Previous Day
Next Day »
Daily Weekly Monthly Yearly Custom
  High: Low: Average:
Temperature: -17.8 °C -21.1 °C -19.6 °C
Dew Point: -17.8 °C -22 °C -20.8 °C
Humidity: Humidity% 81% 85%
Wind Speed: 0km/h 0km/h 0.6km/h
Wind Gust: 0km/h - -
Wind- - ESE
Pressure: 0 hPa 35058.6 hPa -
Precipitation: 0 mm    
Historical Graphs
 
 
Tabular Data for January 14, 2018
Time Temperature Dew Point Pressure Wind Wind Speed Wind Gust Humidity Rainfall Rate (Hourly) solar Conditions
-17.8 °C -17.8 °C 0 hPa Calm     Humidity% 0 mm SoftwareType W/m2 Conditions
00:01 -19.1 °C -20 °C 35255 hPa Calm     89% 0 mm WeatherDisplay:10.37 W/m2 FEW
00:06 -19.1 °C -20 °C 35255 hPa Calm     89% 0 mm WeatherDisplay:10.37 W/m2 FEW
00:11 -19.1 °C -20 °C 35255 hPa Calm     89% 0 mm WeatherDisplay:10.37 W/m2 FEW
00:16 -19.2 °C -20.1 °C 35255 hPa Calm     89% 0 mm WeatherDisplay:10.37 W/m2 FEW
00:21 -19.2 °C -20.1 °C 35255 hPa Calm     89% 0 mm WeatherDisplay:10.37 W/m2 FEW
00:26 -19.1 °C -20 °C 35255 hPa Calm     89% 0 mm WeatherDisplay:10.37 W/m2 FEW
00:31 -19.1 °C -20.1 °C 35255 hPa Calm     88% 0 mm WeatherDisplay:10.37 W/m2 FEW
00:36 -19.1 °C -20.1 °C 35265.2 hPa Calm     88% 0 mm WeatherDisplay:10.37 W/m2 FEW
00:41 -19.1 °C -20.1 °C 35255 hPa Calm     88% 0 mm WeatherDisplay:10.37 W/m2 FEW
00:45 -19.1 °C -20.1 °C 35265.2 hPa Calm     88% 0 mm WeatherDisplay:10.37 W/m2 FEW
00:51 -19.1 °C -20.1 °C 35255 hPa Calm     88% 0 mm WeatherDisplay:10.37 W/m2 FEW
00:59 -19.2 °C -20.2 °C 35255 hPa Calm     87% 0 mm WeatherDisplay:10.37 W/m2 FEW
01:04 -19.2 °C -20.2 °C 35255 hPa East 0.5 km/h 3.1 km/h 87% 0 mm WeatherDisplay:10.37 W/m2 FEW
01:10 -19.2 °C -20.3 °C 35255 hPa Calm     86% 0 mm WeatherDisplay:10.37 W/m2 FEW
01:19 -19.2 °C -20.3 °C 35255 hPa Calm     86% 0 mm WeatherDisplay:10.37 W/m2 FEW
01:24 -19.2 °C -20.3 °C 35255 hPa Calm     86% 0 mm WeatherDisplay:10.37 W/m2 FEW
01:29 -19.2 °C -20.3 °C 35255 hPa Calm     86% 0 mm WeatherDisplay:10.37 W/m2 FEW
01:35 -19.2 °C -20.3 °C 35255 hPa Calm     86% 0 mm WeatherDisplay:10.37 W/m2 FEW
01:40 -19.2 °C -20.3 °C 35255 hPa Calm     86% 0 mm WeatherDisplay:10.37 W/m2 FEW
01:45 -19.2 °C -20.3 °C 35255 hPa Calm     86% 0 mm WeatherDisplay:10.37 W/m2 FEW
01:56 -19.2 °C -20.4 °C 35255 hPa Calm     85% 0 mm WeatherDisplay:10.37 W/m2 FEW
02:01 -19.2 °C -20.5 °C 35255 hPa Calm     84% 0 mm WeatherDisplay:10.37 W/m2 FEW
02:14 -19.2 °C -20.4 °C 35244.9 hPa Calm     85% 0 mm WeatherDisplay:10.37 W/m2 FEW
02:30 -19.2 °C -20.5 °C 35244.9 hPa Calm     84% 0 mm WeatherDisplay:10.37 W/m2 FEW
02:35 -19.3 °C -20.6 °C 35244.9 hPa Calm     84% 0 mm WeatherDisplay:10.37 W/m2 FEW
02:37 -19.3 °C -20.7 °C 35244.9 hPa Calm     83% 0 mm WeatherDisplay:10.37 W/m2 FEW
02:42 -19.3 °C -20.6 °C 35244.9 hPa Calm     84% 0 mm WeatherDisplay:10.37 W/m2 FEW
02:47 -19.3 °C -20.6 °C 35244.9 hPa Calm     84% 0 mm WeatherDisplay:10.37 W/m2 FEW
02:52 -19.3 °C -20.6 °C 35244.9 hPa Calm     84% 0 mm WeatherDisplay:10.37 W/m2 FEW
02:57 -19.3 °C -20.6 °C 35244.9 hPa Calm     84% 0 mm WeatherDisplay:10.37 W/m2 FEW
03:02 -19.3 °C -20.6 °C 35244.9 hPa Calm     84% 0 mm WeatherDisplay:10.37 W/m2 FEW
03:07 -19.3 °C -20.7 °C 35244.9 hPa Calm     83% 0 mm WeatherDisplay:10.37 W/m2 FEW
03:17 -19.3 °C -20.6 °C 35231.3 hPa Calm     84% 0 mm WeatherDisplay:10.37 W/m2 FEW
03:22 -19.3 °C -20.6 °C 35231.3 hPa Calm     84% 0 mm WeatherDisplay:10.37 W/m2 FEW
03:27 -19.3 °C -20.6 °C 35231.3 hPa Calm     84% 0 mm WeatherDisplay:10.37 W/m2 FEW
03:36 -19.3 °C -20.6 °C 35231.3 hPa Calm     84% 0 mm WeatherDisplay:10.37 W/m2 FEW
03:41 -19.3 °C -20.6 °C 35231.3 hPa Calm     84% 0 mm WeatherDisplay:10.37 W/m2 FEW
03:46 -19.3 °C -20.6 °C 35231.3 hPa Calm     84% 0 mm WeatherDisplay:10.37 W/m2 FEW
03:51 -19.3 °C -20.6 °C 35231.3 hPa Calm     84% 0 mm WeatherDisplay:10.37 W/m2 FEW
04:01 -19.3 °C -20.5 °C 35231.3 hPa Calm     85% 0 mm WeatherDisplay:10.37 W/m2 FEW
04:06 -19.3 °C -20.5 °C 35231.3 hPa Calm     85% 0 mm WeatherDisplay:10.37 W/m2 FEW
04:11 -19.3 °C -20.5 °C 35231.3 hPa Calm     85% 0 mm WeatherDisplay:10.37 W/m2 FEW
04:17 -19.3 °C -20.5 °C 35231.3 hPa Calm     85% 0 mm WeatherDisplay:10.37 W/m2 FEW
04:25 -19.3 °C -20.5 °C 35231.3 hPa Calm     85% 0 mm WeatherDisplay:10.37 W/m2 FEW
04:30 -19.3 °C -20.5 °C 35231.3 hPa Calm     85% 0 mm WeatherDisplay:10.37 W/m2 FEW
04:35 -19.3 °C -20.5 °C 35231.3 hPa Calm     85% 0 mm WeatherDisplay:10.37 W/m2 FEW
04:45 -19.3 °C -20.6 °C 35221.2 hPa Calm     84% 0 mm WeatherDisplay:10.37 W/m2 FEW
04:50 -19.3 °C -20.6 °C 35221.2 hPa Calm     84% 0 mm WeatherDisplay:10.37 W/m2 FEW
04:55 -19.3 °C -20.5 °C 35221.2 hPa Calm     85% 0 mm WeatherDisplay:10.37 W/m2 FEW
05:00 -19.3 °C -20.5 °C 35221.2 hPa Calm     85% 0 mm WeatherDisplay:10.37 W/m2 FEW
05:05 -19.3 °C -20.5 °C 35221.2 hPa Calm     85% 0 mm WeatherDisplay:10.37 W/m2 FEW
05:11 -19.3 °C -20.5 °C 35221.2 hPa Calm     85% 0 mm WeatherDisplay:10.37 W/m2 FEW
05:16 -19.3 °C -20.5 °C 35221.2 hPa Calm     85% 0 mm WeatherDisplay:10.37 W/m2 FEW
05:21 -19.3 °C -20.5 °C 35221.2 hPa Calm     85% 0 mm WeatherDisplay:10.37 W/m2 FEW
05:31 -19.3 °C -20.5 °C 35221.2 hPa Calm     85% 0 mm WeatherDisplay:10.37 W/m2 FEW
05:38 -19.3 °C -20.6 °C 35221.2 hPa Calm     84% 0 mm WeatherDisplay:10.37 W/m2 FEW
05:47 -19.3 °C -20.5 °C 35207.6 hPa Calm     85% 0 mm WeatherDisplay:10.37 W/m2 FEW
05:54 -19.3 °C -20.5 °C 35207.6 hPa Calm     85% 0 mm WeatherDisplay:10.37 W/m2 FEW
05:59 -19.3 °C -20.5 °C 35207.6 hPa Calm     85% 0 mm WeatherDisplay:10.37 W/m2 FEW
06:04 -19.3 °C -20.6 °C 35207.6 hPa Calm     84% 0 mm WeatherDisplay:10.37 W/m2 FEW
06:09 -19.3 °C -20.6 °C 35207.6 hPa Calm     84% 0 mm WeatherDisplay:10.37 W/m2 FEW
06:14 -19.3 °C -20.6 °C 35207.6 hPa Calm     84% 0 mm WeatherDisplay:10.37 W/m2 FEW
06:22 -19.3 °C -20.5 °C 35207.6 hPa Calm     85% 0 mm WeatherDisplay:10.37 W/m2 FEW
06:27 -19.3 °C -20.5 °C 35207.6 hPa Calm     85% 0 mm WeatherDisplay:10.37 W/m2 FEW
06:32 -19.3 °C -20.5 °C 35207.6 hPa Calm     85% 0 mm WeatherDisplay:10.37 W/m2 FEW
06:39 -19.3 °C -20.5 °C 35207.6 hPa Calm     85% 0 mm WeatherDisplay:10.37 W/m2 FEW
06:50 -19.3 °C -20.5 °C 35197.5 hPa Calm     85% 0 mm WeatherDisplay:10.37 W/m2 FEW
07:00 -19.3 °C -20.5 °C 35197.5 hPa Calm     85% 0 mm WeatherDisplay:10.37 W/m2 FEW
07:14 -19.3 °C -20.5 °C 35197.5 hPa Calm     85% 0 mm WeatherDisplay:10.37 W/m2 FEW
07:19 -19.3 °C -20.5 °C 35197.5 hPa Calm     85% 0 mm WeatherDisplay:10.37 W/m2 FEW
07:24 -19.3 °C -20.5 °C 35197.5 hPa Calm     85% 0 mm WeatherDisplay:10.37 W/m2 FEW
07:33 -19.3 °C -20.4 °C 35197.5 hPa Calm     85% 0 mm WeatherDisplay:10.37 W/m2 FEW
07:38 -19.3 °C -20.4 °C 35187.3 hPa Calm     85% 0 mm WeatherDisplay:10.37 W/m2 FEW
07:46 -19.3 °C -20.6 °C 35187.3 hPa Calm     84% 0 mm WeatherDisplay:10.37 W/m2 FEW
07:59 -19.3 °C -20.6 °C 35187.3 hPa Calm     84% 0 mm WeatherDisplay:10.37 W/m2 FEW
08:10 -19.3 °C -20.6 °C 35187.3 hPa Calm     84% 0 mm WeatherDisplay:10.37 W/m2 FEW
08:15 -19.3 °C -20.6 °C 35187.3 hPa East 2.6 km/h 6 km/h 84% 0 mm WeatherDisplay:10.37 W/m2 FEW
08:23 -19.2 °C -20.5 °C 35187.3 hPa Calm     84% 0 mm WeatherDisplay:10.37 W/m2 FEW
08:28 -19.2 °C -20.5 °C 35187.3 hPa Calm     84% 0 mm WeatherDisplay:10.37 W/m2 FEW
08:38 -19.2 °C -20.5 °C 35187.3 hPa Calm     84% 0 mm WeatherDisplay:10.37 W/m2 FEW
08:43 -19.2 °C -20.5 °C 35187.3 hPa Calm     84% 0 mm WeatherDisplay:10.37 W/m2 FEW
08:49 -19.2 °C -19.9 °C 35187.3 hPa Calm     91% 0 mm WeatherDisplay:10.37 W/m2 FEW
08:55 -19.2 °C -20.5 °C 35187.3 hPa Calm     84% 0 mm WeatherDisplay:10.37 W/m2 FEW
09:00 -19.2 °C -19.9 °C 35187.3 hPa Calm     91% 0 mm WeatherDisplay:10.37 W/m2 FEW
09:05 -19.2 °C -20.4 °C 35187.3 hPa Calm     85% 0 mm WeatherDisplay:10.37 W/m2 FEW
09:10 -19.2 °C -19.9 °C 35187.3 hPa Calm     91% 0 mm WeatherDisplay:10.37 W/m2 FEW
09:15 -19.2 °C -19.9 °C 35187.3 hPa Calm     91% 0 mm WeatherDisplay:10.37 W/m2 FEW
09:20 -19.2 °C -20.5 °C 35187.3 hPa Calm     84% 0 mm WeatherDisplay:10.37 W/m2 FEW
09:25 -19.2 °C -20.5 °C 35187.3 hPa Calm     84% 0 mm WeatherDisplay:10.37 W/m2 FEW
09:30 -19.2 °C -20.5 °C 35187.3 hPa Calm   3.1 km/h 84% 0 mm WeatherDisplay:10.37 W/m2 FEW
09:38 -19.2 °C -20.5 °C 35187.3 hPa Calm     84% 0 mm WeatherDisplay:10.37 W/m2 FEW
09:43 -19.2 °C -19.9 °C 35187.3 hPa Calm     91% 0 mm WeatherDisplay:10.37 W/m2 FEW
09:51 -19.2 °C -20.5 °C 35187.3 hPa Calm     84% 0 mm WeatherDisplay:10.37 W/m2 FEW
09:59 -19.2 °C -20.5 °C 35197.5 hPa Calm     84% 0 mm WeatherDisplay:10.37 W/m2 FEW
10:09 -19.2 °C -20.5 °C 35197.5 hPa Calm     84% 0 mm WeatherDisplay:10.37 W/m2 FEW
10:23 -19.2 °C -20.6 °C 35197.5 hPa Calm     83% 0 mm WeatherDisplay:10.37 W/m2 FEW
10:28 -19.2 °C -20.5 °C 35197.5 hPa Calm     84% 0 mm WeatherDisplay:10.37 W/m2 FEW
10:33 -19.2 °C -20.5 °C 35197.5 hPa Calm     84% 0 mm WeatherDisplay:10.37 W/m2 FEW
10:38 -19.2 °C -20.6 °C 35197.5 hPa Calm     83% 0 mm WeatherDisplay:10.37 W/m2 FEW
10:43 -19.2 °C -20.6 °C 35197.5 hPa Calm     83% 0 mm WeatherDisplay:10.37 W/m2 FEW
10:48 -19.2 °C -20.6 °C 35197.5 hPa East 0.5 km/h 6 km/h 83% 0 mm WeatherDisplay:10.37 W/m2 FEW
10:54 -19.2 °C -20.6 °C 35197.5 hPa Calm     83% 0 mm WeatherDisplay:10.37 W/m2 FEW
11:16 -19.2 °C -20.6 °C 35197.5 hPa East 2.9 km/h 9 km/h 83% 0 mm WeatherDisplay:10.37 W/m2 FEW
11:25 -19.2 °C -20.7 °C 35197.5 hPa Calm     82% 0 mm WeatherDisplay:10.37 W/m2 FEW
11:30 -19.2 °C -20.7 °C 35197.5 hPa Calm     82% 0 mm WeatherDisplay:10.37 W/m2 FEW
11:37 -19.2 °C -20.7 °C 35197.5 hPa Calm     82% 0 mm WeatherDisplay:10.37 W/m2 FEW
11:49 -19.2 °C -20.7 °C 35187.3 hPa East 5 km/h 9 km/h 82% 0 mm WeatherDisplay:10.37 W/m2 FEW
12:00 -19.2 °C -20.7 °C 35187.3 hPa Calm     81% 0 mm WeatherDisplay:10.37 W/m2 FEW
12:05 -19.2 °C -20.7 °C 35187.3 hPa Calm     82% 0 mm WeatherDisplay:10.37 W/m2 FEW
12:10 -19.2 °C -20.7 °C 35187.3 hPa Calm     82% 0 mm WeatherDisplay:10.37 W/m2 FEW
12:20 -19.2 °C -20.7 °C 35187.3 hPa Calm     82% 0 mm WeatherDisplay:10.37 W/m2 FEW
12:29 -19.1 °C -20.6 °C 35187.3 hPa Calm     82% 0 mm WeatherDisplay:10.37 W/m2 FEW
14:27 -19.1 °C -20.4 °C 35150.1 hPa Calm     84% 0 mm WeatherDisplay:10.37 W/m2 CLR
14:33 -19.1 °C -20.4 °C 35150.1 hPa Calm     84% 0 mm WeatherDisplay:10.37 W/m2 FEW
14:38 -19.1 °C -20.3 °C 35150.1 hPa Calm     85% 0 mm WeatherDisplay:10.37 W/m2 FEW
14:43 -19.1 °C -20.3 °C 35150.1 hPa Calm     85% 0 mm WeatherDisplay:10.37 W/m2 FEW
14:48 -19.1 °C -20.3 °C 35150.1 hPa Calm     85% 0 mm WeatherDisplay:10.37 W/m2 FEW
14:53 -19.2 °C -20.4 °C 35150.1 hPa Calm     85% 0 mm WeatherDisplay:10.37 W/m2 FEW
15:05 -19.2 °C -20.4 °C 35150.1 hPa Calm     84% 0 mm WeatherDisplay:10.37 W/m2 FEW
15:10 -19.2 °C -20.5 °C 35150.1 hPa Calm     84% 0 mm WeatherDisplay:10.37 W/m2 FEW
15:15 -19.2 °C -20.5 °C 35150.1 hPa Calm     84% 0 mm WeatherDisplay:10.37 W/m2 FEW
15:20 -19.2 °C -20.5 °C 35150.1 hPa Calm     84% 0 mm WeatherDisplay:10.37 W/m2 FEW
15:25 -19.2 °C -20.5 °C 35150.1 hPa Calm     84% 0 mm WeatherDisplay:10.37 W/m2 FEW
15:30 -19.2 °C -20.5 °C 35150.1 hPa Calm     84% 0 mm WeatherDisplay:10.37 W/m2 FEW
15:44 -19.2 °C -20.5 °C 35150.1 hPa Calm     84% 0 mm WeatherDisplay:10.37 W/m2 FEW
15:49 -19.2 °C -20.5 °C 35150.1 hPa ESE 1 km/h 2.6 km/h 84% 0 mm WeatherDisplay:10.37 W/m2 FEW
15:59 -19.3 °C -20.7 °C 35139.9 hPa Calm   3.1 km/h 83% 0 mm WeatherDisplay:10.37 W/m2 FEW
16:13 -19.3 °C -20.7 °C 35139.9 hPa Calm     83% 0 mm WeatherDisplay:10.37 W/m2 FEW
16:18 -19.3 °C -20.7 °C 35139.9 hPa Calm   3.1 km/h 83% 0 mm WeatherDisplay:10.37 W/m2 FEW
16:23 -19.3 °C -20.7 °C 35139.9 hPa ESE 2.1 km/h   83% 0 mm WeatherDisplay:10.37 W/m2 FEW
16:28 -19.3 °C -20.7 °C 35139.9 hPa Calm     83% 0 mm WeatherDisplay:10.37 W/m2 FEW
16:39 -19.3 °C -20.7 °C 35139.9 hPa ESE 2.1 km/h 5.1 km/h 84% 0 mm WeatherDisplay:10.37 W/m2 FEW
16:44 -19.3 °C -20.7 °C 35139.9 hPa ESE 0.5 km/h   84% 0 mm WeatherDisplay:10.37 W/m2 FEW
16:49 -19.4 °C -20.7 °C 35139.9 hPa Calm     84% 0 mm WeatherDisplay:10.37 W/m2 FEW
16:54 -19.4 °C -20.7 °C 35139.9 hPa Calm     84% 0 mm WeatherDisplay:10.37 W/m2 FEW
17:11 -19.4 °C -20.7 °C 35129.8 hPa Calm     84% 0 mm WeatherDisplay:10.37 W/m2 FEW
17:21 -19.5 °C -20.8 °C 35129.8 hPa ESE 2.1 km/h 9 km/h 84% 0 mm WeatherDisplay:10.37 W/m2 FEW
17:26 -19.5 °C -20.8 °C 35129.8 hPa Calm     84% 0 mm WeatherDisplay:10.37 W/m2 FEW
17:31 -19.5 °C -20.8 °C 35129.8 hPa SSE 5 km/h 17.9 km/h 84% 0 mm WeatherDisplay:10.37 W/m2 FEW
17:36 -19.5 °C -20.8 °C 35129.8 hPa SE 7.2 km/h 11.9 km/h 84% 0 mm WeatherDisplay:10.37 W/m2 FEW
17:43 -19.5 °C -20.8 °C 35129.8 hPa Calm   9 km/h 84% 0 mm WeatherDisplay:10.37 W/m2 FEW
17:49 -19.6 °C -20.7 °C 35129.8 hPa ESE 3.1 km/h 15 km/h 85% 0 mm WeatherDisplay:10.37 W/m2 FEW
17:54 -19.6 °C -20.8 °C 35129.8 hPa ESE 8 km/h 11.9 km/h 85% 0 mm WeatherDisplay:10.37 W/m2 FEW
17:59 -19.6 °C -20.7 °C 35129.8 hPa SE 6.4 km/h 11.9 km/h 86% 0 mm WeatherDisplay:10.37 W/m2 FEW
18:04 -19.6 °C -20.7 °C 35116.2 hPa Calm   9 km/h 86% 0 mm WeatherDisplay:10.37 W/m2 FEW
18:09 -19.6 °C -20.7 °C 35129.8 hPa SE 1.8 km/h 3.1 km/h 86% 0 mm WeatherDisplay:10.37 W/m2 FEW
18:14 -19.7 °C -20.7 °C 35129.8 hPa SE 1 km/h   87% 0 mm WeatherDisplay:10.37 W/m2 FEW
18:21 -19.7 °C -20.7 °C 35116.2 hPa SE 8.9 km/h 18.2 km/h 87% 0 mm WeatherDisplay:10.37 W/m2 FEW
18:26 -19.8 °C -20.8 °C 35116.2 hPa Calm     87% 0 mm WeatherDisplay:10.37 W/m2 FEW
18:34 -19.9 °C -20.9 °C 35129.8 hPa ESE 1.3 km/h 9 km/h 87% 0 mm WeatherDisplay:10.37 W/m2 FEW
18:40 -20.1 °C -21.1 °C 35116.2 hPa Calm     87% 0 mm WeatherDisplay:10.37 W/m2 FEW
18:45 -20.1 °C -21.1 °C 35116.2 hPa SE 1.8 km/h 11.9 km/h 87% 0 mm WeatherDisplay:10.37 W/m2 FEW
18:50 -20.2 °C -21.1 °C 35116.2 hPa Calm     88% 0 mm WeatherDisplay:10.37 W/m2 FEW
19:05 -20.3 °C -21.3 °C 35116.2 hPa Calm     88% 0 mm WeatherDisplay:10.37 W/m2 FEW
19:14 -20.4 °C -21.3 °C 35106 hPa Calm     89% 0 mm WeatherDisplay:10.37 W/m2 FEW
19:24 -20.7 °C -21.5 °C 35106 hPa Calm     89% 0 mm WeatherDisplay:10.37 W/m2 FEW
19:29 -20.7 °C -21.6 °C 35106 hPa Calm     89% 0 mm WeatherDisplay:10.37 W/m2 FEW
19:34 -20.8 °C -21.6 °C 35106 hPa Calm     90% 0 mm WeatherDisplay:10.37 W/m2 FEW
19:39 -20.8 °C -21.6 °C 35106 hPa Calm     90% 0 mm WeatherDisplay:10.37 W/m2 FEW
19:44 -20.9 °C -21.7 °C 35106 hPa Calm     90% 0 mm WeatherDisplay:10.37 W/m2 FEW
19:49 -20.9 °C -21.7 °C 35106 hPa Calm     90% 0 mm WeatherDisplay:10.37 W/m2 FEW
19:59 -21 °C -21.8 °C 35106 hPa Calm     90% 0 mm WeatherDisplay:10.37 W/m2 FEW
20:05 -21 °C -21.8 °C 35106 hPa Calm     90% 0 mm WeatherDisplay:10.37 W/m2 FEW
20:10 -21 °C -21.7 °C 35106 hPa ESE 2.3 km/h 9 km/h 91% 0 mm WeatherDisplay:10.37 W/m2 FEW
20:15 -20.9 °C -21.6 °C 35106 hPa Calm     91% 0 mm WeatherDisplay:10.37 W/m2 FEW
20:20 -20.9 °C -21.6 °C 35106 hPa Calm     91% 0 mm WeatherDisplay:10.37 W/m2 FEW
20:25 -20.9 °C -21.6 °C 35106 hPa SE 1 km/h 7.7 km/h 91% 0 mm WeatherDisplay:10.37 W/m2 FEW
20:30 -20.9 °C -21.6 °C 35095.9 hPa ESE 0.5 km/h 9 km/h 90% 0 mm WeatherDisplay:10.37 W/m2 FEW
20:37 -20.8 °C -21.6 °C 35095.9 hPa Calm   9 km/h 90% 0 mm WeatherDisplay:10.37 W/m2 FEW
20:42 -20.8 °C -21.6 °C 35095.9 hPa Calm     89% 0 mm WeatherDisplay:10.37 W/m2 FEW
20:47 -20.8 °C -21.6 °C 35095.9 hPa Calm   11.9 km/h 89% 0 mm WeatherDisplay:10.37 W/m2 FEW
20:52 -20.8 °C -21.6 °C 35095.9 hPa Calm     89% 0 mm WeatherDisplay:10.37 W/m2 FEW
20:57 -20.8 °C -21.6 °C 35095.9 hPa Calm     89% 0 mm WeatherDisplay:10.37 W/m2 FEW
21:04 -20.7 °C -21.6 °C 35095.9 hPa SE 6.4 km/h 9 km/h 89% 0 mm WeatherDisplay:10.37 W/m2 FEW
21:10 -20.7 °C -21.7 °C 35095.9 hPa Calm     88% 0 mm WeatherDisplay:10.37 W/m2 FEW
21:15 -20.7 °C -21.7 °C 35095.9 hPa SE 4.3 km/h 9 km/h 88% 0 mm WeatherDisplay:10.37 W/m2 FEW
21:27 -20.8 °C -21.7 °C 35095.9 hPa Calm     88% 0 mm WeatherDisplay:10.37 W/m2 FEW
21:33 -20.8 °C -21.8 °C 35082.3 hPa SE 5 km/h 9 km/h 87% 0 mm WeatherDisplay:10.37 W/m2 FEW
21:45 -20.8 °C -21.8 °C 35082.3 hPa SE 1.6 km/h 9 km/h 87% 0 mm WeatherDisplay:10.37 W/m2 FEW
21:50 -20.8 °C -21.8 °C 35082.3 hPa SE 2.9 km/h 6 km/h 87% 0 mm WeatherDisplay:10.37 W/m2 FEW
21:55 -20.8 °C -21.8 °C 35082.3 hPa SE 2.9 km/h 11.9 km/h 87% 0 mm WeatherDisplay:10.37 W/m2 FEW
22:05 -20.8 °C -21.8 °C 35095.9 hPa Calm     87% 0 mm WeatherDisplay:10.37 W/m2 FEW
22:10 -20.8 °C -21.8 °C 35082.3 hPa Calm     88% 0 mm WeatherDisplay:10.37 W/m2 FEW
22:15 -20.8 °C -21.8 °C 35082.3 hPa ESE 0.5 km/h 6 km/h 88% 0 mm WeatherDisplay:10.37 W/m2 FEW
22:20 -20.8 °C -21.8 °C 35082.3 hPa ESE 0.8 km/h 9 km/h 88% 0 mm WeatherDisplay:10.37 W/m2 FEW
22:25 -20.8 °C -21.8 °C 35082.3 hPa ESE 4.2 km/h 9 km/h 88% 0 mm WeatherDisplay:10.37 W/m2 FEW
22:30 -20.8 °C -21.8 °C 35082.3 hPa Calm     88% 0 mm WeatherDisplay:10.37 W/m2 FEW
22:38 -20.8 °C -21.7 °C 35082.3 hPa Calm     89% 0 mm WeatherDisplay:10.37 W/m2 FEW
22:43 -20.8 °C -21.7 °C 35082.3 hPa Calm     89% 0 mm WeatherDisplay:10.37 W/m2 FEW
22:48 -20.8 °C -21.8 °C 35072.2 hPa SE 2.3 km/h 9 km/h 88% 0 mm WeatherDisplay:10.37 W/m2 FEW
22:53 -20.9 °C -21.8 °C 35072.2 hPa Calm     88% 0 mm WeatherDisplay:10.37 W/m2 FEW
23:07 -20.9 °C -21.8 °C 35072.2 hPa Calm     88% 0 mm WeatherDisplay:10.37 W/m2 FEW
23:12 -20.9 °C -21.9 °C 35072.2 hPa Calm   9 km/h 88% 0 mm WeatherDisplay:10.37 W/m2 FEW
23:22 -21 °C -21.9 °C 35058.6 hPa Calm     88% 0 mm WeatherDisplay:10.37 W/m2 FEW
23:28 -21 °C -21.9 °C 35058.6 hPa SSW 4.7 km/h 15 km/h 88% 0 mm WeatherDisplay:10.37 W/m2 FEW
23:33 -21.1 °C -22 °C 35058.6 hPa ESE 6.4 km/h 10.3 km/h 88% 0 mm WeatherDisplay:10.37 W/m2 FEW
23:38 -21.1 °C -22 °C 35058.6 hPa SE 0.5 km/h 7.7 km/h 88% 0 mm WeatherDisplay:10.37 W/m2 FEW
23:43 -21.1 °C -22 °C 35058.6 hPa SSE 9 km/h 20.9 km/h 88% 0 mm WeatherDisplay:10.37 W/m2 FEW
Tuulensuunkaari, Veikkola, Suomi
Compliments of Weather Underground - 2.25 mb